Wind_Speed
8 7 5 8 12 16 17 17 17 16 21 26 28 27 25 28 33 35 36 36 36 36 37 36 35 36 37 37 37 36 37 38 38 38 38 38 36 33 32 29 28 28 27 27
4 6 10 13 14 14 13 14 14 16 20 26 29 28 25 27 31 33 35 34 34 36 37 36 35 35 35 36 36 37 38 39 39 39 39 38 36 34 32 30 28 27 26 26
4 9 11 10 8 6 6 9 13 16 18 20 19 20 19 22 27 31 32 31 31 33 33 31 33 34 34 35 35 38 39 39 40 41 39 38 35 34 31 29 28 27 26 26
4 8 10 7 6 6 8 12 15 17 18 18 16 18 19 23 28 30 27 26 27 26 28 29 30 32 34 35 36 38 39 40 40 39 38 37 35 32 29 29 29 28 27 26
4 7 8 8 9 10 11 14 15 14 14 13 13 16 19 24 28 28 26 27 29 28 28 28 30 32 33 35 36 37 37 38 39 38 39 37 34 32 31 30 30 30 29 29
4 6 8 9 11 11 11 10 9 10 15 18 17 17 20 24 27 28 30 30 30 30 26 27 29 30 32 34 35 36 36 37 38 37 38 38 36 34 33 33 33 32 32 32
5 8 7 8 9 10 11 9 11 15 18 20 16 13 18 22 23 27 31 31 31 30 30 31 30 31 33 34 35 37 38 39 39 39 40 39 38 37 36 36 35 34 34 34
6 8 4 9 12 12 10 9 11 16 17 20 20 19 21 22 24 27 28 29 31 33 34 34 34 35 36 38 39 41 42 42 43 43 43 43 43 42 41 40 39 38 38 37
6 7 8 12 12 10 10 9 10 14 14 14 16 24 27 26 26 26 28 31 34 37 38 38 39 39 40 42 44 45 46 47 47 48 48 48 48 47 46 45 44 43 42 41
8 9 8 10 11 11 13 13 14 15 16 17 16 25 32 32 32 32 33 34 37 40 41 42 43 43 44 46 47 48 49 50 51 52 52 53 52 52 51 50 50 49 47 45
9 8 5 8 11 11 13 15 16 18 19 21 22 27 32 34 34 36 38 40 41 43 45 46 47 48 48 49 51 51 52 53 54 55 55 56 56 56 55 55 54 53 52 50
9 9 8 8 10 13 13 16 19 20 22 22 23 29 31 33 35 37 40 43 44 46 49 50 51 52 53 53 54 55 56 57 58 58 59 59 59 59 59 59 58 57 56 55
11 11 9 10 13 15 17 18 21 24 26 26 27 32 34 37 39 41 44 46 48 50 52 54 55 55 56 57 58 58 59 60 61 62 63 63 64 64 64 64 63 62 61 60
12 12 12 12 12 13 17 19 21 24 27 28 31 36 39 41 43 46 49 51 53 54 56 56 57 58 59 60 61 62 63 64 64 65 65 66 66 67 67 67 67 67 65 64
12 12 13 13 12 12 16 19 22 25 28 32 35 40 43 44 46 49 51 54 56 58 59 60 61 62 63 64 65 66 66 66 66 66 66 66 67 67 68 68 68 68 68 67
13 13 14 14 12 12 18 22 24 28 32 36 38 42 44 47 49 52 54 57 59 61 63 64 66 67 68 68 68 68 67 66 66 65 64 64 65 65 64 64 65 65 65 65
15 16 17 17 15 16 22 25 28 32 36 40 42 44 47 49 51 54 56 60 63 65 66 68 69 69 69 68 66 64 62 60 59 58 57 57 56 57 57 57 57 58 58 59
16 17 19 20 20 20 25 27 30 34 39 42 44 47 50 53 55 57 60 63 65 66 67 68 67 66 64 61 58 55 53 51 50 48 46 44 42 42 42 43 44 46 48 49
20 21 22 23 22 27 31 32 35 39 43 46 48 51 54 56 58 59 61 62 63 64 65 65 63 61 57 53 51 48 46 44 42 39 37 35 34 32 31 31 32 33 35 37
23 24 25 26 28 31 34 37 40 43 46 51 53 56 58 60 61 60 61 62 64 65 64 62 59 55 51 49 47 45 42 40 38 36 33 31 30 30 29 29 29 29 29 30
21 24 26 28 30 35 37 41 44 45 49 51 54 56 59 60 62 62 63 64 64 62 59 56 53 50 47 45 44 42 41 40 38 36 34 33 32 31 30 29 28 27 27 27
24 27 29 31 33 37 40 43 46 49 51 54 56 58 60 62 62 63 63 63 61 58 54 51 49 47 46 45 44 43 42 41 39 38 37 36 34 33 32 30 28 27 26 25
26 29 32 34 36 39 43 46 49 52 55 57 58 60 62 63 62 63 62 60 56 53 51 50 49 48 47 47 46 45 43 42 41 39 38 36 35 34 32 30 28 27 26 24
31 31 33 36 39 42 45 48 51 53 56 57 59 61 62 62 62 62 59 56 53 52 51 50 50 49 47 47 47 45 43 42 41 39 38 36 35 33 31 30 28 27 25 24
30 33 35 38 41 42 45 49 52 55 56 58 60 61 61 62 61 59 56 54 53 52 51 50 50 49 47 47 45 43 41 39 38 37 35 34 33 31 30 28 27 26 25 24
33 35 38 40 43 46 48 51 54 56 57 59 61 60 60 60 58 56 54 54 53 52 51 50 50 49 47 45 43 40 38 36 34 33 32 31 29 28 27 26 25 24 23 22
Wind_Direction
287 284 284 269 260 254 247 237 233 234 237 249 255 257 256 257 263 268 271 273 273 274 277 277 275 278 281 284 286 287 288 291 293 294 296 297 296 295 293 292 290 288 286 285
321 278 257 259 261 262 257 252 249 252 255 257 263 268 266 262 269 273 276 279 276 272 274 275 275 277 278 279 282 284 286 287 289 291 292 294 293 292 291 290 289 286 284 284
281 269 284 289 290 286 271 261 253 247 254 264 275 283 282 272 269 272 277 277 277 276 275 275 275 277 277 277 280 283 284 285 287 289 290 291 292 292 289 287 287 286 284 283
258 288 300 301 291 266 270 255 256 260 264 267 266 270 274 268 269 272 277 283 283 276 279 277 273 276 276 278 281 282 282 284 285 287 289 289 290 290 289 289 288 286 284 282
257 289 304 297 277 269 267 264 268 272 273 270 263 266 268 268 270 272 280 281 284 290 288 283 281 278 277 278 280 281 281 283 285 287 290 290 291 290 290 288 287 285 284 282
318 304 300 297 294 292 288 280 275 284 280 266 256 251 260 270 279 282 288 289 295 296 291 286 286 284 280 280 282 282 284 285 286 287 290 288 288 288 288 286 285 284 283 281
319 286 280 310 321 300 292 292 294 297 302 300 291 265 260 273 282 289 294 296 297 297 297 295 291 289 287 285 285 285 287 286 287 288 289 288 287 286 285 283 283 282 280 279
294 307 321 310 311 310 305 296 297 300 306 315 317 298 277 271 278 287 292 294 299 300 298 294 292 291 289 288 288 287 287 287 286 287 287 286 285 285 283 282 280 280 279 276
287 302 310 308 319 328 325 313 297 295 298 301 304 296 293 285 284 287 288 294 300 301 299 296 294 292 290 289 288 287 286 285 285 285 285 284 284 283 282 280 279 278 278 276
286 275 267 294 315 311 312 317 316 310 305 300 299 296 295 296 298 297 295 299 300 300 298 297 295 293 291 289 288 287 285 284 283 283 282 282 282 281 280 279 278 277 276 275
297 296 291 289 293 296 299 305 306 305 302 298 296 293 291 296 295 295 298 300 299 299 297 296 295 294 292 290 288 287 286 284 283 282 281 280 280 279 278 278 277 276 275 274
306 310 312 298 294 293 303 315 318 313 309 306 302 293 294 293 293 296 297 298 297 296 296 295 294 293 292 290 289 287 286 285 283 282 281 280 279 278 277 276 275 274 273 273
319 318 312 306 309 314 323 321 314 306 306 307 303 295 294 295 297 298 297 296 296 296 295 295 295 294 293 291 290 288 286 285 283 282 280 279 278 277 275 274 273 272 271 271
319 318 315 313 309 307 305 303 298 298 300 301 299 297 298 300 301 300 299 299 299 299 298 298 297 296 294 292 291 289 287 286 285 283 281 280 278 277 275 274 273 272 270 269
324 324 321 318 315 307 297 295 298 300 302 303 303 302 303 305 304 302 302 302 301 300 300 300 298 297 295 293 292 290 289 287 286 284 282 281 279 278 276 275 273 272 271 269
326 325 323 321 317 306 294 298 304 304 304 304 305 306 307 306 305 305 305 304 303 303 302 301 300 298 297 295 294 292 291 289 287 286 284 282 281 279 277 276 274 272 271 270
330 330 329 326 322 311 298 307 307 306 307 308 310 310 309 307 307 308 307 305 305 305 304 303 302 301 299 298 297 295 294 292 291 289 287 286 284 282 279 277 275 273 271 270
335 333 331 331 329 314 312 316 314 312 312 311 313 312 311 311 311 312 310 308 308 307 306 305 303 302 301 300 299 298 297 296 295 294 292 291 289 286 283 281 278 275 273 270
339 337 335 335 331 318 320 323 319 318 316 316 317 316 315 315 314 314 312 311 311 309 308 306 305 305 303 302 301 300 299 298 297 296 294 293 292 292 291 288 285 282 278 274
335 334 334 334 329 322 326 324 323 323 321 321 321 319 318 317 317 317 316 315 313 312 310 309 308 306 305 303 301 300 299 298 297 295 293 292 291 291 291 291 290 286 283 278
331 333 333 333 329 324 328 325 324 323 322 321 320 320 320 321 320 320 318 317 316 314 313 311 310 308 307 304 302 300 298 296 294 292 289 289 289 289 288 288 288 287 284 281
335 335 334 333 330 327 327 325 325 325 325 325 324 324 324 323 323 322 321 319 318 316 314 312 310 309 306 304 301 299 297 295 292 289 287 287 286 285 284 283 282 283 283 280
335 335 332 332 329 328 328 328 328 328 328 328 328 327 326 326 326 325 323 322 320 318 316 313 311 309 307 305 302 299 296 294 291 287 286 285 283 282 281 278 277 277 277 277
331 333 331 330 331 331 330 329 329 330 330 330 330 329 329 328 328 328 327 326 324 321 318 315 313 311 308 306 304 300 296 292 289 286 284 283 280 278 276 274 272 272 271 271
329 330 332 332 332 332 331 330 331 332 332 331 331 331 331 331 331 330 329 328 326 324 321 319 316 313 311 308 306 303 299 294 289 286 283 281 278 274 272 270 270 269 266 265
332 333 334 334 333 333 334 333 333 334 334 333 334 334 334 333 333 332 332 330 329 327 325 322 320 317 314 311 308 305 301 297 292 287 283 279 275 270 269 268 266 265 263 261
Height
5872 5873 5873 5874 5875 5875 5875 5877 5879 5881 5879 5877 5876 5876 5877 5876 5874 5872 5870 5869 5867 5863 5861 5861 5856 5856 5856 5855 5854 5854 5854 5853 5851 5849 5847 5845 5843 5841 5839 5837 5836 5834 5832 5831
5871 5871 5870 5869 5870 5870 5872 5873 5875 5875 5874 5872 5871 5870 5870 5870 5868 5865 5862 5860 5858 5855 5853 5853 5852 5850 5850 5850 5849 5848 5847 5845 5844 5842 5840 5838 5835 5834 5832 5830 5829 5827 5826 5825
5870 5869 5867 5868 5868 5869 5870 5871 5870 5870 5868 5867 5867 5866 5865 5864 5862 5859 5855 5852 5850 5848 5845 5845 5846 5845 5844 5842 5842 5841 5840 5837 5836 5834 5832 5830 5828 5826 5825 5823 5822 5821 5820 5818
5868 5867 5867 5867 5867 5866 5867 5865 5865 5864 5863 5863 5864 5862 5861 5857 5854 5851 5848 5846 5842 5837 5837 5838 5838 5838 5837 5835 5835 5834 5832 5830 5829 5826 5823 5822 5821 5819 5817 5816 5814 5814 5813 5812
5866 5866 5866 5865 5864 5863 5863 5862 5861 5860 5859 5858 5859 5859 5857 5851 5848 5845 5843 5841 5837 5831 5832 5832 5831 5831 5830 5829 5827 5825 5823 5823 5821 5818 5816 5814 5812 5811 5810 5809 5807 5806 5805 5805
5865 5865 5864 5863 5862 5861 5860 5859 5858 5857 5854 5852 5852 5852 5851 5846 5843 5840 5838 5836 5834 5830 5827 5827 5825 5824 5822 5821 5820 5817 5815 5814 5812 5810 5808 5806 5805 5803 5802 5801 5799 5798 5797 5797
5864 5862 5862 5861 5861 5860 5858 5857 5856 5853 5850 5846 5844 5845 5845 5842 5840 5837 5834 5832 5829 5827 5824 5823 5820 5819 5816 5813 5812 5809 5807 5805 5803 5801 5799 5797 5796 5794 5793 5792 5791 5789 5788 5787
5862 5860 5860 5861 5860 5858 5856 5856 5855 5852 5849 5847 5843 5841 5838 5836 5835 5832 5829 5827 5824 5822 5819 5816 5814 5811 5809 5806 5804 5801 5798 5795 5793 5791 5789 5787 5785 5784 5783 5781 5780 5779 5779 5778
5861 5861 5861 5860 5858 5857 5855 5854 5853 5850 5848 5847 5846 5838 5835 5830 5828 5826 5824 5821 5819 5816 5812 5809 5806 5803 5800 5797 5794 5791 5788 5785 5783 5780 5777 5775 5773 5771 5770 5769 5768 5768 5767 5767
5861 5860 5859 5858 5857 5856 5854 5852 5851 5848 5845 5843 5843 5837 5831 5826 5823 5820 5818 5816 5813 5809 5804 5800 5797 5794 5790 5786 5782 5779 5776 5773 5770 5767 5764 5762 5760 5758 5757 5756 5755 5754 5754 5754
5859 5858 5857 5856 5854 5853 5852 5851 5848 5846 5844 5841 5838 5836 5828 5824 5820 5815 5811 5809 5805 5800 5795 5790 5786 5782 5778 5774 5770 5766 5762 5759 5756 5752 5750 5747 5745 5743 5742 5741 5740 5739 5739 5739
5857 5856 5855 5854 5852 5849 5847 5846 5844 5843 5840 5837 5833 5831 5824 5818 5813 5809 5804 5800 5796 5791 5785 5780 5775 5770 5765 5761 5756 5751 5748 5744 5740 5737 5734 5731 5729 5727 5725 5724 5723 5723 5723 5723
5855 5854 5853 5852 5851 5847 5846 5844 5842 5838 5835 5832 5828 5824 5817 5812 5807 5802 5796 5790 5785 5779 5773 5768 5762 5756 5751 5746 5740 5736 5731 5727 5723 5719 5716 5713 5710 5708 5707 5705 5705 5705 5705 5705
5853 5852 5851 5850 5847 5846 5844 5842 5839 5835 5831 5827 5823 5815 5809 5805 5799 5793 5786 5780 5773 5767 5760 5754 5748 5741 5735 5729 5723 5718 5713 5708 5703 5699 5696 5693 5690 5687 5686 5685 5684 5684 5685 5686
5851 5850 5847 5846 5844 5843 5841 5838 5835 5830 5826 5821 5815 5808 5802 5796 5790 5783 5776 5768 5760 5753 5746 5739 5732 5724 5717 5711 5704 5698 5693 5687 5682 5678 5674 5671 5668 5666 5664 5663 5662 5662 5663 5664
5849 5847 5845 5843 5841 5839 5836 5833 5830 5825 5820 5814 5809 5802 5794 5787 5779 5772 5764 5755 5746 5738 5730 5722 5713 5705 5697 5690 5683 5676 5670 5664 5659 5655 5651 5648 5645 5643 5641 5640 5640 5640 5641 5642
5847 5844 5842 5840 5837 5835 5830 5828 5824 5818 5812 5805 5799 5794 5785 5777 5769 5761 5751 5741 5731 5722 5712 5703 5693 5684 5676 5668 5660 5654 5648 5642 5637 5633 5629 5626 5623 5621 5620 5619 5618 5618 5619 5619
5845 5842 5839 5836 5833 5829 5828 5822 5817 5811 5804 5797 5791 5783 5774 5765 5757 5748 5737 5725 5715 5705 5694 5684 5674 5665 5656 5648 5641 5635 5629 5624 5619 5615 5611 5608 5605 5603 5602 5600 5599 5598 5598 5599
5841 5838 5835 5832 5829 5824 5819 5815 5809 5803 5795 5787 5780 5771 5762 5752 5744 5736 5723 5710 5699 5688 5677 5667 5656 5647 5639 5632 5625 5619 5614 5609 5605 5601 5598 5595 5593 5591 5589 5587 5585 5584 5583 5583
5839 5836 5832 5828 5824 5819 5815 5807 5801 5795 5786 5776 5768 5758 5748 5738 5728 5720 5707 5695 5683 5671 5659 5649 5639 5631 5624 5617 5611 5605 5601 5597 5593 5590 5587 5585 5582 5580 5579 5577 5575 5574 5572 5572
5838 5834 5829 5825 5820 5812 5808 5800 5794 5788 5780 5770 5759 5748 5737 5725 5714 5703 5691 5679 5666 5654 5643 5633 5624 5616 5609 5603 5597 5593 5588 5584 5581 5578 5576 5574 5572 5570 5569 5568 5566 5564 5563 5563
5834 5830 5825 5820 5815 5810 5801 5794 5786 5778 5768 5758 5747 5736 5724 5713 5700 5687 5675 5662 5650 5638 5628 5619 5610 5603 5597 5590 5584 5579 5575 5572 5568 5566 5564 5562 5561 5559 5558 5558 5557 5556 5555 5555
5830 5826 5820 5816 5811 5803 5794 5786 5777 5767 5757 5747 5735 5724 5711 5699 5686 5674 5661 5648 5636 5625 5615 5606 5598 5590 5583 5577 5570 5565 5561 5557 5554 5552 5551 5549 5548 5548 5547 5547 5547 5547 5547 5547
5825 5821 5816 5810 5804 5796 5787 5778 5770 5759 5748 5737 5725 5712 5699 5686 5673 5660 5648 5636 5624 5614 5603 5594 5585 5577 5569 5563 5556 5550 5546 5542 5540 5538 5537 5536 5535 5536 5536 5536 5537 5538 5539 5539
5823 5817 5811 5804 5797 5791 5783 5772 5761 5751 5739 5727 5715 5701 5688 5675 5662 5649 5636 5625 5613 5602 5592 5581 5572 5563 5555 5548 5542 5536 5531 5527 5525 5524 5523 5523 5523 5524 5525 5526 5527 5528 5530 5531
5817 5811 5805 5798 5790 5782 5773 5763 5752 5741 5730 5718 5705 5692 5678 5665 5651 5639 5627 5615 5603 5591 5580 5570 5560 5551 5542 5535 5528 5523 5518 5514 5512 5511 5511 5511 5511 5512 5514 5516 5518 5519 5521 5523